Flag for Poland Weather past 2 weeks in Wroclaw, Poland

Now
54 °F

Clear.


Feels Like: 51 °F
Forecast: 44 / 67 °F
Wind: 8 mph from Northwest

Location: Wroclaw Ii

Current Time: May 27, 2015 at 11:01:38 PM

Latest Report: May 27, 2015 at 10:00 PM


Visibility: 10 mi

Pressure: 30.09 "Hg

Humidity: 63%

Dew point: 41 °F

Location of WroclawLocation

Historic Weather in Wroclaw — Graph

°F

Wroclaw temperature yesterday

Maximum temperature yesterday: 64 °F (at 12:00 PM)
Minimum temperature yesterday: 52 °F (at 11:00 PM)
Average temperature yesterday: 59 °F

Past Weeks' High & Low Weather Summary

 TemperatureHumidityPressure
High73 °F (May 19, 11:30 AM)100% (May 25, 3:00 AM)30.30 "Hg (May 25, 3:00 AM)
Low39 °F (May 15, 3:00 AM)29% (May 18, 1:30 PM)29.68 "Hg (May 19, 4:00 AM)
Average58 °F68%30.02 "Hg
* Reported May 12 10:00 PM — May 27 10:00 PM, Wroclaw, Weather by CustomWeather, © 2015

Note: Actual official high and low records may vary slightly from our data, if they occured in-between our weather recording intervals... More about our weather records

Advertising

Wroclaw weather history for previous 24 hours

 ConditionsComfort  
Time TempWeatherWind HumidityBarometerVisibility
10:00 PM
Wed, May 27
54 °FClear.8 mph63%30.09 "Hg10 mi
9:30 PM54 °FSunny.8 mph63%30.09 "Hg10 mi
9:00 PM54 °FSunny.9 mph63%30.09 "Hg10 mi
8:30 PM55 °FPassing clouds.8 mph59%30.09 "HgN/A
8:00 PM55 °FPassing clouds.10 mph59%30.09 "HgN/A
7:30 PM55 °FPassing clouds.14 mph59%30.09 "HgN/A
7:00 PM57 °FPassing clouds.12 mph55%30.09 "HgN/A
6:30 PM57 °FPassing clouds.14 mph55%30.09 "HgN/A
6:00 PM57 °FPassing clouds.15 mph55%30.09 "HgN/A
5:30 PM57 °FSunny.15 mph59%30.09 "Hg10 mi
5:00 PM57 °FPassing clouds.14 mph55%30.09 "HgN/A
4:30 PM57 °FPassing clouds.17 mph48%30.09 "HgN/A
4:00 PM57 °FSunny.13 mph48%30.09 "Hg10 mi
3:30 PM57 °FSunny.17 mph48%30.09 "Hg10 mi
3:00 PM57 °FPassing clouds.17 mph48%30.09 "HgN/A
2:30 PM57 °FPassing clouds.17 mph48%30.09 "HgN/A
2:00 PM57 °FPassing clouds.17 mph48%30.09 "HgN/A
1:30 PM55 °FPassing clouds.18 mph55%30.09 "HgN/A
1:00 PM55 °FPassing clouds.16 mph55%30.09 "HgN/A
12:30 PM55 °FPassing clouds.14 mph55%30.09 "HgN/A
12:00 PM55 °FPassing clouds.16 mph55%30.09 "HgN/A
11:30 AM55 °FPassing clouds.15 mph59%30.09 "HgN/A
11:00 AM55 °FPassing clouds.15 mph59%30.09 "HgN/A
10:30 AM55 °FPassing clouds.15 mph59%30.09 "HgN/A
10:00 AM55 °FPassing clouds.17 mph55%30.09 "HgN/A
9:30 AM55 °FScattered clouds.16 mph59%30.09 "HgN/A
9:00 AM55 °FPartly sunny.15 mph59%30.07 "HgN/A
8:30 AM54 °FPartly sunny.16 mph63%30.07 "HgN/A
8:00 AM54 °FPassing clouds.14 mph67%30.07 "HgN/A
7:30 AM54 °FPassing clouds.13 mph63%30.07 "HgN/A
7:00 AM52 °FSunny.10 mph72%30.07 "Hg10 mi
6:30 AM50 °FPassing clouds.7 mph76%30.07 "HgN/A
6:00 AM50 °FPartly sunny.8 mph76%30.07 "HgN/A
5:30 AM48 °FPassing clouds.9 mph82%30.04 "HgN/A
5:00 AM48 °FClear.8 mph76%30.04 "Hg10 mi
4:30 AM48 °FPassing clouds.8 mph76%30.04 "HgN/A
4:00 AM48 °FPassing clouds.7 mph76%30.04 "HgN/A
3:30 AM50 °FClear.8 mph71%30.04 "Hg10 mi
3:00 AM50 °FClear.8 mph71%30.04 "Hg10 mi
2:30 AM48 °FClear.7 mph76%30.04 "Hg10 mi
2:00 AM48 °FClear.8 mph71%30.04 "Hg10 mi
1:30 AM50 °FClear.8 mph67%30.04 "Hg10 mi
1:00 AM50 °FClear.9 mph67%30.01 "Hg10 mi
12:30 AM50 °FClear.8 mph67%30.04 "Hg10 mi
12:00 AM50 °FClear.8 mph71%30.04 "Hg10 mi
11:30 PM
Tue, May 26
54 °FClear.8 mph63%30.01 "Hg10 mi
11:00 PM52 °FClear.8 mph62%30.01 "Hg10 mi
Weather by CustomWeather, © 2015

See weather overviewHow to use our weather pages